Погода в Странраере

Великобритания     54°54′11″N   5°01′11″W
темп.,
°C
ветер,
м/с
пор.,
м/с
влажн.,
%
обл.,
%
осадки,
мм/ч
давл.,
гПа
погр.,
м
17 июня, чт
чт1701:00+10ююв2394100 0.6 100946
04:00+10ююв2292100 0.1 101024
07:00+12зсз248812 0.1 1011160
10:00+12сз558059 0.0 1012497
13:00+13сз457618 0.0 1014570
16:00+13сз567078 0.0 1015573
19:00+11сз89815 0.0 1016521
22:00+10сз69865 0.0 1019500
18 июня, пт
пт1801:00+9сз58873 0.0 1019413
04:00+8сз58910 0.0 1020328
07:00+9ссз68830 0.0 1020534
10:00+11ссз66690 0.0 1020769
13:00+12сз65671 0.0 1020781
16:00+12сз77730 0.0 1019424
19:00+11сз687662 0.0 1018248
22:00+9сз458490 0.0 1018115
19 июня, сб
сб1901:00+9св228666 0.0 101741
04:00+10ссв2286100 0.0 1016104
07:00+11юв1185100 0.1 1015121
10:00+13ююв458194 0.1 1014532
13:00+14ююв676799 0.1 1013672
16:00+14ююв576290 0.0 1012556
19:00+14юв477081 0.0 1010360
22:00+11вюв4880100 0.0 1010121
20 июня, вс
вс2001:00+12вюв51293100 0.5 1008392
04:00+13вюв81594100 0.8 1006578
07:00+12в61291100 1.1 1004393
10:00+12в81492100 1.2 1004452
13:00+11в81594100 5.4 1003581
16:00+10в71393100 9.0 1003617
19:00+9всв4992100 15.3 1003650
22:00+9ссв4793100 4.0 1004355
21 июня, пн
пн2101:00+9ссв4793100 4.6 1004297
04:00+9св4594100 0.1 1004218
07:00+9ссв3593100 0.1 1004220
10:00+9с5791100 0.1 1005421
13:00+9с6991100 0.6 1005460
16:00+9с71092100 0.4 1006567
19:00+9ссз6993100 0.9 1007612
22:00+9ссз71091100 0.4 1008663